[[{"header":{"parameterUnit":"m.s-1","parameterCategory":1,"la1":30.2991,"la2":30.254,"lo1":-89.0895,"lo2":-89.0444,"dy":0.0017,"dx":0.0017,"nx":28,"ny":28,"refTime":"2025-05-26T03:00:00:Z","depth":0,"parameterNumber":2,"parameterNumberName":"U-component_of_WINDS"},"data":[0,0,0,0,0,0,0,0,0,0,0,0,0,0,0,0,0,0,0,0,0,0,0,0,0,0,0,0,0,0,0,0,0,0,0,0,0,0,0,0,0,0,0,0,0,0,0,0,0,0,0,0,0,0,0,0,0,0,-1.0547,-1.0546,0,-1.0454,-1.0453,-1.0452,-1.0402,-1.0402,-1.0402,-1.0402,-1.0306,-1.0303,-1.0301,0,0,0,0,0,0,0,0,0,0,0,0,0,-1.0684,-1.0682,-1.0547,-1.0546,-1.0545,-1.0454,-1.0453,-1.0451,-1.0402,-1.0402,-1.0402,-1.0401,-1.0307,-1.0304,-1.0301,0,0,0,0,0,0,0,0,0,0,0,0,0,-1.0611,-1.0681,-1.0547,-1.0509,-1.0505,-1.0454,-1.0453,-1.0451,-1.0402,-1.0402,-1.0402,-1.0401,-1.0308,-1.0304,-1.03,-1.0281,0,0,-1.0289,-1.0287,0,0,0,0,0,0,0,0,-1.0615,-1.0606,-1.0516,-1.0512,-1.0507,-1.0439,-1.0466,-1.0394,-1.0402,-1.0441,-1.0402,-1.0401,-1.035,-1.0343,-1.0326,-1.0276,-1.0272,-1.0289,-1.0287,-1.0285,-1.0284,0,0,0,0,0,0,0,-1.062,-1.061,-1.051,-1.0515,-1.0509,-1.0497,-1.0487,-1.0452,-1.0398,-1.0438,-1.0434,-1.0423,-1.0348,-1.033,-1.0323,-1.0271,-1.0289,-1.0286,-1.0283,-1.0282,-1.0201,-1.0202,0,0,0,0,0,0,-1.0632,-1.0614,-1.0513,-1.0507,-1.0562,-1.0495,-1.0483,-1.0461,-1.0398,-1.0388,-1.0424,-1.0421,-1.0336,-1.0328,-1.032,-1.0293,-1.0285,-1.0282,-1.0279,-1.0201,-1.0201,-1.0202,0,0,0,0,0,0,-1.0635,-1.0623,-1.0517,-1.056,-1.0545,-1.0493,-1.0468,-1.0459,-1.0441,-1.0387,-1.0377,-1.0415,-1.0336,-1.0325,-1.0291,-1.0289,-1.028,-1.0277,-1.0201,-1.0201,-1.0202,-1.0239,0,0,0,0,0,0,-1.0639,-1.0624,-1.0616,-1.056,-1.0543,-1.0489,-1.0468,-1.0458,-1.0435,-1.0431,-1.0376,-1.0367,-1.0335,-1.0297,-1.0287,-1.0284,-1.0274,-1.0201,-1.0201,-1.0201,-1.0238,-1.0241,-1.0243,0,0,0,0,0,-1.0644,-1.063,-1.0616,-1.0604,-1.0531,-1.0489,-1.048,-1.0442,-1.0435,-1.0426,-1.0392,-1.0369,-1.0291,-1.0294,-1.0283,-1.0278,-1.0201,-1.0201,-1.0201,-1.0237,-1.024,-1.0243,0,0,0,0,0,0,-1.0686,-1.0622,-1.0605,-1.0573,-1.0537,-1.0481,-1.0469,-1.0447,-1.0413,-1.041,-1.0366,-1.0354,-1.0324,-1.0298,-1.0302,-1.0256,-1.0244,-1.0242,-1.0275,-1.0277,-1.028,-1.0286,-1.0271,0,0,0,0,0,-1.0692,-1.0663,-1.0608,-1.0585,-1.0568,-1.0522,-1.0502,-1.0476,-1.0437,-1.0422,-1.0385,-1.0349,-1.0316,-1.0295,-1.0262,-1.0234,-1.0222,-1.0226,-1.0229,-1.0231,-1.0229,-1.0214,-1.0215,-1.0202,-1.0202,-1.0202,0,0,-1.0703,-1.0664,-1.0648,-1.0592,-1.0561,-1.0533,-1.0509,-1.0479,-1.0458,-1.0417,-1.0383,-1.0356,-1.0312,-1.0281,-1.0266,-1.0258,-1.0231,-1.0231,-1.0233,-1.023,-1.0214,-1.0216,-1.0217,-1.0202,-1.0202,-1.0202,0,0,-1.0708,-1.0676,-1.0653,-1.0624,-1.0578,-1.0547,-1.0542,-1.049,-1.047,-1.0435,-1.0405,-1.0379,-1.0323,-1.0294,-1.0272,-1.0269,-1.0247,-1.0259,-1.0272,-1.0258,-1.0259,-1.0259,-1.0259,-1.0259,-1.0258,-1.0258,-1.0258,0,-1.0728,-1.0683,-1.0644,-1.0617,-1.0594,-1.0557,-1.0534,-1.0507,-1.0453,-1.0438,-1.043,-1.0361,-1.0329,-1.0291,-1.0291,-1.0274,-1.0267,-1.0265,-1.0262,-1.0262,-1.0262,-1.0261,-1.0261,-1.026,-1.026,-1.026,-1.026,0,-1.071,-1.068,-1.0667,-1.0616,-1.0591,-1.0566,-1.0525,-1.0505,-1.0482,-1.0453,-1.0419,-1.038,-1.0339,-1.0328,-1.0305,-1.0288,-1.0285,-1.027,-1.0256,-1.0266,-1.0264,-1.0263,-1.0263,-1.0262,-1.0262,-1.0261,0,0,-1.0737,-1.0667,-1.0663,-1.064,-1.0588,-1.0564,-1.0538,-1.0498,-1.0482,-1.0447,-1.0425,-1.038,-1.0366,-1.0341,-1.0315,-1.0303,-1.0304,-1.0289,-1.0288,-1.0294,-1.0283,-1.0294,-1.0295,-1.029,-1.0289,-1.0289,-1.0287,0,-1.0735,-1.0687,-1.0652,-1.0617,-1.0589,-1.0555,-1.0533,-1.0499,-1.0472,-1.0445,-1.0415,-1.0384,-1.0368,-1.0353,-1.0339,-1.0307,-1.0301,-1.0306,-1.0268,-1.0268,-1.028,-1.0293,-1.0305,-1.0304,-1.0286,-1.0286,-1.0286,0,-1.0726,-1.0692,-1.0655,-1.0607,-1.0594,-1.0574,-1.0536,-1.051,-1.0472,-1.0453,-1.0427,-1.04,-1.0373,-1.0363,-1.0324,-1.0329,-1.0312,-1.0294,-1.0293,-1.0287,-1.0277,-1.0288,-1.0303,-1.0303,-1.0284,-1.0284,-1.0284,0,-1.075,-1.0696,-1.0666,-1.0648,-1.0591,-1.0578,-1.0554,-1.0516,-1.0495,-1.0462,-1.0448,-1.0412,-1.0392,-1.0365,-1.0331,-1.0326,-1.0296,-1.0283,-1.028,-1.0281,-1.0274,-1.0275,-1.0287,-1.0264,-1.0264,-1.0264,-1.0264,0,-1.0751,-1.073,-1.0676,-1.0658,-1.0634,-1.0595,-1.0572,-1.0545,-1.0512,-1.0488,-1.0457,-1.0436,-1.0392,-1.0366,-1.0338,-1.0311,-1.0303,-1.0287,-1.028,-1.029,-1.0292,-1.0277,-1.0276,-1.0264,-1.0264,-1.0264,-1.0264,0,-1.0773,-1.0737,-1.0703,-1.0653,-1.064,-1.0624,-1.0581,-1.0563,-1.0535,-1.0506,-1.0497,-1.0453,-1.0421,-1.0385,-1.034,-1.0322,-1.0297,-1.0287,-1.031,-1.0306,-1.0305,-1.0306,-1.0308,-1.0306,-1.0285,-1.0285,-1.0286,0,-1.0776,-1.0759,-1.0707,-1.069,-1.0667,-1.0638,-1.0617,-1.0579,-1.0558,-1.0515,-1.0502,-1.0468,-1.0438,-1.0389,-1.0353,-1.0319,-1.0308,-1.0311,-1.0303,-1.0313,-1.0308,-1.031,-1.0308,-1.0313,-1.0314,-1.0314,-1.0314,0,-1.0785,-1.0768,-1.0738,-1.0703,-1.0679,-1.0649,-1.0618,-1.0605,-1.0561,-1.054,-1.0507,-1.0484,-1.044,-1.0406,-1.0369,-1.0344,-1.0322,-1.0317,-1.0315,-1.0324,-1.0339,-1.0331,-1.0316,-1.0317,-1.0317,-1.0317,-1.0316,-1.0316,-1.0797,-1.0781,-1.0743,-1.0711,-1.0684,-1.0656,-1.0637,-1.0607,-1.0579,-1.054,-1.052,-1.0487,-1.0451,-1.0398,-1.0375,-1.035,-1.0342,-1.0339,-1.0338,-1.0337,-1.0341,-1.0343,-1.0343,-1.0343,-1.0343,-1.0343,-1.0343,0,-1.0805,-1.0779,-1.075,-1.0708,-1.0684,-1.0666,-1.0631,-1.0612,-1.0584,-1.0552,-1.0524,-1.0487,-1.0456,-1.0418,-1.0384,-1.0371,-1.036,-1.0364,-1.0364,-1.0359,-1.0349,-1.0355,-1.0373,-1.0373,-1.0373,-1.0373,-1.0373,-1.0373,-1.0806,-1.0777,-1.0756,-1.0715,-1.0689,-1.0657,-1.0639,-1.0614,-1.0588,-1.0549,-1.0522,-1.0498,-1.0465,-1.0428,-1.0399,-1.0389,-1.0378,-1.0384,-1.0371,-1.0362,-1.036,-1.0357,-1.0362,-1.0382,-1.0382,-1.0383,-1.0383,-1.0383]},{"header":{"parameterUnit":"m.s-1","parameterCategory":1,"la1":30.2991,"la2":30.254,"lo1":-89.0895,"lo2":-89.0444,"dy":0.0017,"dx":0.0017,"nx":28,"ny":28,"refTime":"2025-05-26T03:00:00:Z","depth":0,"parameterNumber":3,"parameterNumberName":"V-component_of_WINDS"},"data":[0,0,0,0,0,0,0,0,0,0,0,0,0,0,0,0,0,0,0,0,0,0,0,0,0,0,0,0,0,0,0,0,0,0,0,0,0,0,0,0,0,0,0,0,0,0,0,0,0,0,0,0,0,0,0,0,0,0,5.8882,5.8883,0,5.8903,5.8903,5.8904,5.8837,5.8835,5.8833,5.8831,5.8849,5.8851,5.8854,0,0,0,0,0,0,0,0,0,0,0,0,0,5.8782,5.8784,5.8882,5.8883,5.8883,5.8903,5.8903,5.8904,5.8837,5.8835,5.8832,5.883,5.8848,5.8851,5.8854,0,0,0,0,0,0,0,0,0,0,0,0,0,5.8816,5.8785,5.8882,5.8852,5.885,5.8903,5.8903,5.8904,5.8838,5.8835,5.8832,5.8829,5.8847,5.8851,5.8854,5.8937,0,0,5.8865,5.8867,0,0,0,0,0,0,0,0,5.8814,5.882,5.8856,5.8854,5.8852,5.8864,5.8875,5.8915,5.8838,5.8842,5.8831,5.8827,5.8856,5.8859,5.8869,5.8938,5.8938,5.8866,5.8868,5.8869,5.887,0,0,0,0,0,0,0,5.8812,5.8819,5.889,5.8857,5.8854,5.8837,5.8838,5.8882,5.8866,5.8842,5.8837,5.884,5.8855,5.8866,5.8869,5.8939,5.8865,5.8869,5.8871,5.8872,5.9076,5.9079,0,0,0,0,0,0,5.8814,5.8817,5.889,5.8891,5.8825,5.8841,5.8843,5.8863,5.8865,5.8863,5.8843,5.8837,5.8862,5.8865,5.887,5.8967,5.8869,5.8872,5.8875,5.9073,5.9076,5.908,0,0,0,0,0,0,5.8812,5.8821,5.8889,5.8853,5.886,5.8846,5.887,5.8865,5.8877,5.8866,5.8863,5.8858,5.8859,5.8865,5.8921,5.8966,5.8874,5.8877,5.9069,5.9074,5.9078,5.9161,0,0,0,0,0,0,5.881,5.8821,5.8853,5.8854,5.8862,5.8941,5.8872,5.8868,5.8884,5.8876,5.888,5.8877,5.8857,5.8916,5.8925,5.897,5.888,5.9064,5.9071,5.9077,5.9155,5.9169,5.9181,0,0,0,0,0,5.8806,5.8875,5.8855,5.8864,5.8902,5.8944,5.8948,5.8925,5.8888,5.8919,5.8912,5.8877,5.896,5.8922,5.8931,5.8978,5.9061,5.9069,5.9076,5.9149,5.9166,5.918,0,0,0,0,0,0,5.8878,5.8874,5.8852,5.8923,5.8935,5.8932,5.8971,5.8944,5.8965,5.8957,5.8926,5.8928,5.8989,5.8989,5.8947,5.9058,5.9004,5.9014,5.9056,5.9072,5.9085,5.9084,5.8883,0,0,0,0,0,5.8902,5.8937,5.8931,5.8995,5.9002,5.8986,5.9003,5.8984,5.8994,5.8998,5.8995,5.9005,5.9034,5.9053,5.9078,5.9154,5.9154,5.9191,5.9204,5.9215,5.9223,5.9263,5.928,5.9104,5.9104,5.9104,0,0,5.8952,5.8954,5.8978,5.9009,5.9016,5.9052,5.899,5.9031,5.9057,5.9004,5.9057,5.9056,5.9065,5.9131,5.916,5.9133,5.9272,5.9224,5.9233,5.9235,5.9273,5.9289,5.9304,5.9109,5.9108,5.9108,0,0,5.9062,5.9067,5.9121,5.9129,5.914,5.9129,5.9142,5.9144,5.9142,5.9195,5.9156,5.9186,5.9235,5.9244,5.9254,5.9368,5.9337,5.9377,5.9445,5.9485,5.9499,5.9511,5.9552,5.9566,5.9386,5.9386,5.9386,0,5.9122,5.9176,5.9151,5.9195,5.921,5.9165,5.9218,5.9227,5.9245,5.9256,5.9225,5.9287,5.929,5.9358,5.9386,5.9396,5.9409,5.9377,5.9499,5.9511,5.9522,5.956,5.9576,5.9391,5.939,5.939,5.9389,0,5.925,5.9288,5.933,5.9351,5.937,5.9418,5.94,5.9422,5.9402,5.9394,5.9449,5.9451,5.9476,5.9491,5.9471,5.9556,5.9539,5.9504,5.9449,5.9544,5.9579,5.9594,5.9398,5.9396,5.9395,5.9393,0,0,5.9405,5.9412,5.9428,5.9437,5.9446,5.9474,5.9521,5.9546,5.9566,5.958,5.9618,5.9661,5.9629,5.9642,5.9622,5.9657,5.9747,5.9618,5.9617,5.9642,5.9842,5.9868,5.9886,5.9726,5.9729,5.9731,5.9841,0,5.9514,5.9595,5.9574,5.9653,5.9688,5.9646,5.9686,5.9695,5.9689,5.9717,5.971,5.9741,5.9696,5.9704,5.9736,5.973,5.9787,5.9721,5.9761,5.9763,5.976,5.9904,5.9932,6.0036,5.9855,5.9857,5.9859,0,5.9651,5.9672,5.9756,5.976,5.9774,5.9811,5.9833,5.986,5.987,5.9863,5.9877,5.9851,5.9895,5.984,5.9901,5.9857,5.9872,5.9871,5.9875,5.9878,5.9817,5.9911,6.0068,6.0084,5.988,5.9879,5.9877,0,5.9757,5.9806,5.9862,5.9871,5.9877,5.9904,5.9907,5.9914,5.9931,5.995,5.9961,5.9984,5.9997,6.0016,5.9996,5.9958,6.0061,6.0004,6.0056,6.0056,6.0079,6.0078,6.0241,6.0089,6.0089,6.0088,6.0088,0,5.988,5.9933,5.991,5.9945,6.0003,5.9978,6.0036,6.0034,6.004,6.0073,6.0038,6.0069,6.0041,6.007,6.0055,6.0108,6.0114,6.011,6.0105,6.0113,6.0114,6.0122,6.0115,6.0092,6.0091,6.0091,6.009,0,6.0008,5.9995,6.0054,6.0055,6.0056,6.0099,6.0099,6.0131,6.0122,6.0165,6.0173,6.016,6.0192,6.0174,6.0207,6.0197,6.0266,6.0251,6.0263,6.026,6.0313,6.0308,6.0487,6.0509,6.0342,6.0344,6.0345,0,6.0088,6.0128,6.0134,6.0154,6.0161,6.0193,6.0211,6.0188,6.0207,6.0222,6.0252,6.0281,6.0303,6.0357,6.0349,6.0374,6.036,6.0421,6.0364,6.0371,6.0361,6.036,6.0363,6.0433,6.0435,6.0436,6.0438,0,6.0232,6.0223,6.0251,6.0276,6.0299,6.0317,6.0332,6.0351,6.0327,6.0351,6.0384,6.0402,6.0436,6.0466,6.0487,6.0489,6.046,6.0456,6.0469,6.0478,6.0483,6.0482,6.0295,6.0452,6.045,6.0449,6.0449,6.0448,6.0338,6.0372,6.0382,6.0413,6.0423,6.0438,6.0468,6.0464,6.0492,6.0518,6.0502,6.0542,6.055,6.0576,6.0582,6.0612,6.0587,6.0607,6.0612,6.0617,6.0624,6.0479,6.0616,6.0615,6.0615,6.0614,6.0614,0,6.048,6.0484,6.0514,6.0537,6.0562,6.0533,6.0549,6.0571,6.0606,6.0617,6.064,6.0678,6.0707,6.0702,6.0728,6.0753,6.074,6.076,6.0758,6.0759,6.0645,6.0631,6.077,6.077,6.077,6.077,6.077,6.077,6.0557,6.0613,6.0606,6.0666,6.0669,6.0708,6.0719,6.0733,6.0742,6.0786,6.081,6.0807,6.0812,6.0838,6.0862,6.086,6.0871,6.0897,6.089,6.0783,6.0767,6.0753,6.0739,6.09,6.09,6.1002,6.1003,6.1004]}]]